Time,TemperatureF,DewpointF,PressureIn,WindDirection,WindDirectionDegrees,WindSpeedMPH,WindSpeedGustMPH,Humidity,HourlyPrecipIn,Conditions,Clouds,dailyrainin,SoftwareType,DateUTC
2013-07-14 00:00:00,74.7,71.3,0.00,North,0,0.0,0.0,89,0.02,,,0.02,WUHU21623XXSP,2013-07-14 04:00:00,
2013-07-14 00:05:00,74.5,71.3,0.00,North,0,0.0,0.0,89,0.02,,,0.00,WUHU21623XXSP,2013-07-14 04:05:00,
2013-07-14 00:10:00,74.5,71.1,0.00,North,0,0.0,0.0,89,0.00,,,0.00,WUHU21623XXSP,2013-07-14 04:10:00,
2013-07-14 00:15:00,74.5,71.1,0.00,North,0,0.0,0.0,89,0.00,,,0.00,WUHU21623XXSP,2013-07-14 04:15:00,
2013-07-14 00:20:00,74.5,71.1,0.00,North,0,0.0,0.0,89,0.00,,,0.00,WUHU21623XXSP,2013-07-14 04:20:00,
2013-07-14 00:25:00,74.3,70.9,0.00,North,0,0.0,0.0,89,0.00,,,0.00,WUHU21623XXSP,2013-07-14 04:25:00,
2013-07-14 00:30:00,74.3,70.9,0.00,North,0,0.0,0.0,89,0.00,,,0.00,WUHU21623XXSP,2013-07-14 04:30:00,
2013-07-14 00:35:00,74.1,70.7,0.00,North,0,0.0,0.0,89,0.00,,,0.00,WUHU21623XXSP,2013-07-14 04:35:00,
2013-07-14 00:40:00,74.1,70.7,0.00,North,0,0.0,0.0,89,0.00,,,0.00,WUHU21623XXSP,2013-07-14 04:40:00,
2013-07-14 00:45:00,74.1,70.7,0.00,North,0,0.0,0.0,89,0.00,,,0.00,WUHU21623XXSP,2013-07-14 04:45:00,
2013-07-14 00:50:00,73.9,70.5,0.00,North,0,0.0,0.0,89,0.00,,,0.00,WUHU21623XXSP,2013-07-14 04:50:00,
2013-07-14 00:55:00,73.9,70.5,0.00,North,0,0.0,0.0,89,0.00,,,0.00,WUHU21623XXSP,2013-07-14 04:55:00,
2013-07-14 01:00:00,73.9,70.5,0.00,North,0,0.0,0.0,89,0.00,,,0.00,WUHU21623XXSP,2013-07-14 05:00:00,
2013-07-14 01:05:00,73.9,70.5,0.00,North,0,0.0,0.0,89,0.00,,,0.00,WUHU21623XXSP,2013-07-14 05:05:00,
2013-07-14 01:10:00,73.8,70.4,0.00,North,0,0.0,0.0,89,0.00,,,0.00,WUHU21623XXSP,2013-07-14 05:10:00,
2013-07-14 01:15:00,73.8,70.4,0.00,North,0,0.0,0.0,89,0.00,,,0.00,WUHU21623XXSP,2013-07-14 05:15:00,
2013-07-14 01:20:00,73.8,70.4,0.00,North,0,0.0,0.0,89,0.00,,,0.00,WUHU21623XXSP,2013-07-14 05:20:00,
2013-07-14 01:25:00,73.8,70.4,0.00,North,0,0.0,0.0,89,0.00,,,0.00,WUHU21623XXSP,2013-07-14 05:25:00,
2013-07-14 01:30:00,73.6,70.2,0.00,North,0,0.0,0.0,89,0.00,,,0.00,WUHU21623XXSP,2013-07-14 05:30:00,
2013-07-14 01:35:00,73.6,70.2,0.00,North,0,0.0,0.0,89,0.00,,,0.00,WUHU21623XXSP,2013-07-14 05:35:00,
2013-07-14 01:40:00,73.6,70.2,0.00,North,0,0.0,0.0,89,0.00,,,0.00,WUHU21623XXSP,2013-07-14 05:40:00,
2013-07-14 01:45:00,73.6,70.2,0.00,North,0,0.0,0.0,89,0.00,,,0.00,WUHU21623XXSP,2013-07-14 05:45:00,
2013-07-14 01:50:00,73.6,70.2,0.00,North,0,0.0,0.0,89,0.00,,,0.00,WUHU21623XXSP,2013-07-14 05:50:00,
2013-07-14 01:55:00,73.4,70.0,0.00,North,0,0.0,0.0,89,0.00,,,0.00,WUHU21623XXSP,2013-07-14 05:55:00,
2013-07-14 02:00:00,73.2,69.8,0.00,North,0,0.0,0.0,89,0.00,,,0.00,WUHU21623XXSP,2013-07-14 06:00:00,
2013-07-14 02:05:00,73.2,69.8,0.00,North,0,0.0,0.0,89,0.00,,,0.00,WUHU21623XXSP,2013-07-14 06:05:00,
2013-07-14 02:10:00,73.2,69.8,0.00,North,0,0.0,0.0,89,0.00,,,0.00,WUHU21623XXSP,2013-07-14 06:10:00,
2013-07-14 02:15:00,73.2,69.8,0.00,North,0,0.0,0.0,89,0.00,,,0.00,WUHU21623XXSP,2013-07-14 06:15:00,
2013-07-14 02:25:00,73.0,69.6,0.00,North,0,0.0,0.0,89,0.00,,,0.00,WUHU21623XXSP,2013-07-14 06:25:00,
2013-07-14 02:30:00,73.0,69.6,0.00,North,0,0.0,0.0,89,0.00,,,0.00,WUHU21623XXSP,2013-07-14 06:30:00,
2013-07-14 02:35:00,72.9,69.5,0.00,North,0,0.0,0.0,89,0.00,,,0.00,WUHU21623XXSP,2013-07-14 06:35:00,
2013-07-14 02:40:00,72.7,69.3,0.00,North,0,0.0,0.0,89,0.00,,,0.00,WUHU21623XXSP,2013-07-14 06:40:00,
2013-07-14 02:45:00,72.7,69.3,0.00,North,0,0.0,0.0,89,0.00,,,0.00,WUHU21623XXSP,2013-07-14 06:45:00,
2013-07-14 02:50:00,72.7,69.3,0.00,North,0,0.0,0.0,89,0.00,,,0.00,WUHU21623XXSP,2013-07-14 06:50:00,
2013-07-14 02:55:00,72.5,69.1,0.00,North,0,0.0,0.0,89,0.00,,,0.00,WUHU21623XXSP,2013-07-14 06:55:00,
2013-07-14 03:00:00,72.5,69.1,0.00,North,0,0.0,0.0,89,0.00,,,0.00,WUHU21623XXSP,2013-07-14 07:00:00,
2013-07-14 03:05:00,72.3,68.9,0.00,North,0,0.0,0.0,89,0.00,,,0.00,WUHU21623XXSP,2013-07-14 07:05:00,
2013-07-14 03:10:00,72.3,68.9,0.00,North,0,0.0,0.0,89,0.00,,,0.00,WUHU21623XXSP,2013-07-14 07:10:00,
2013-07-14 03:15:00,72.3,68.9,0.00,North,0,0.0,0.0,89,0.00,,,0.00,WUHU21623XXSP,2013-07-14 07:15:00,
2013-07-14 03:20:00,72.3,68.9,0.00,North,0,0.0,0.0,89,0.00,,,0.00,WUHU21623XXSP,2013-07-14 07:20:00,
2013-07-14 03:25:00,72.1,68.9,0.00,North,0,0.0,0.0,89,0.00,,,0.00,WUHU21623XXSP,2013-07-14 07:25:00,
2013-07-14 03:30:00,72.1,68.7,0.00,North,0,0.0,0.0,89,0.00,,,0.00,WUHU21623XXSP,2013-07-14 07:30:00,
2013-07-14 03:35:00,72.1,68.7,0.00,North,0,0.0,0.0,89,0.00,,,0.00,WUHU21623XXSP,2013-07-14 07:35:00,
2013-07-14 03:40:00,72.1,68.7,0.00,North,0,0.0,0.0,89,0.00,,,0.00,WUHU21623XXSP,2013-07-14 07:40:00,
2013-07-14 03:45:00,72.1,68.7,0.00,North,0,0.0,0.0,89,0.00,,,0.00,WUHU21623XXSP,2013-07-14 07:45:00,
2013-07-14 03:50:00,72.0,68.6,0.00,North,0,0.0,0.0,89,0.00,,,0.00,WUHU21623XXSP,2013-07-14 07:50:00,
2013-07-14 03:55:00,72.0,68.6,0.00,North,0,0.0,0.0,89,0.00,,,0.00,WUHU21623XXSP,2013-07-14 07:55:00,
2013-07-14 04:00:00,72.0,68.6,0.00,North,0,0.0,0.0,89,0.00,,,0.00,WUHU21623XXSP,2013-07-14 08:00:00,
2013-07-14 04:05:00,71.8,68.6,0.00,North,0,0.0,0.0,89,0.00,,,0.00,WUHU21623XXSP,2013-07-14 08:05:00,
2013-07-14 04:10:00,71.8,68.4,0.00,North,0,0.0,0.0,89,0.00,,,0.00,WUHU21623XXSP,2013-07-14 08:10:00,
2013-07-14 04:15:00,71.8,68.4,0.00,North,0,0.0,0.0,89,0.00,,,0.00,WUHU21623XXSP,2013-07-14 08:15:00,
2013-07-14 04:20:00,71.8,68.4,0.00,North,0,0.0,0.0,89,0.00,,,0.00,WUHU21623XXSP,2013-07-14 08:20:00,
2013-07-14 04:25:00,71.8,68.4,0.00,North,0,0.0,0.0,89,0.00,,,0.00,WUHU21623XXSP,2013-07-14 08:25:00,
2013-07-14 04:30:00,71.8,68.4,0.00,North,0,0.0,0.0,89,0.00,,,0.00,WUHU21623XXSP,2013-07-14 08:30:00,
2013-07-14 04:35:00,71.8,68.4,0.00,North,0,0.0,0.0,89,0.00,,,0.00,WUHU21623XXSP,2013-07-14 08:35:00,
2013-07-14 04:40:00,71.8,68.4,0.00,North,0,0.0,0.0,89,0.00,,,0.00,WUHU21623XXSP,2013-07-14 08:40:00,
2013-07-14 04:45:00,71.8,68.4,0.00,North,0,0.0,0.0,89,0.00,,,0.00,WUHU21623XXSP,2013-07-14 08:45:00,
2013-07-14 04:50:00,71.8,68.4,0.00,North,0,0.0,0.0,89,0.00,,,0.00,WUHU21623XXSP,2013-07-14 08:50:00,
2013-07-14 04:55:00,71.8,68.4,0.00,North,0,0.0,0.0,89,0.00,,,0.00,WUHU21623XXSP,2013-07-14 08:55:00,
2013-07-14 05:00:00,71.8,68.4,0.00,North,0,0.0,0.0,89,0.00,,,0.00,WUHU21623XXSP,2013-07-14 09:00:00,
2013-07-14 05:05:00,71.8,68.4,0.00,North,0,0.0,0.0,89,0.00,,,0.00,WUHU21623XXSP,2013-07-14 09:05:00,
2013-07-14 05:10:00,71.8,68.4,0.00,North,0,0.0,0.0,89,0.00,,,0.00,WUHU21623XXSP,2013-07-14 09:10:00,
2013-07-14 05:15:00,71.8,68.4,0.00,North,0,0.0,0.0,89,0.00,,,0.00,WUHU21623XXSP,2013-07-14 09:15:00,
2013-07-14 05:20:00,71.8,68.4,0.00,North,0,0.0,0.0,89,0.00,,,0.00,WUHU21623XXSP,2013-07-14 09:20:00,
2013-07-14 05:25:00,71.8,68.4,0.00,North,0,0.0,0.0,89,0.00,,,0.00,WUHU21623XXSP,2013-07-14 09:25:00,
2013-07-14 05:30:00,71.8,68.4,0.00,North,0,0.0,0.0,89,0.00,,,0.00,WUHU21623XXSP,2013-07-14 09:30:00,
2013-07-14 05:35:00,71.8,68.4,0.00,North,0,0.0,0.0,89,0.00,,,0.00,WUHU21623XXSP,2013-07-14 09:35:00,
2013-07-14 05:40:00,72.0,68.6,0.00,North,0,0.0,0.0,89,0.00,,,0.00,WUHU21623XXSP,2013-07-14 09:40:00,
2013-07-14 05:45:00,71.8,68.4,0.00,North,0,0.0,0.0,89,0.00,,,0.00,WUHU21623XXSP,2013-07-14 09:45:00,
2013-07-14 05:50:00,71.8,68.7,0.00,North,0,0.0,0.0,89,0.00,,,0.00,WUHU21623XXSP,2013-07-14 09:50:00,
2013-07-14 05:55:00,72.0,68.4,0.00,North,0,0.0,0.0,90,0.00,,,0.00,WUHU21623XXSP,2013-07-14 09:55:00,
2013-07-14 06:00:00,72.0,68.6,0.00,North,0,0.0,0.0,89,0.00,,,0.00,WUHU21623XXSP,2013-07-14 10:00:00,
2013-07-14 06:05:00,72.0,68.6,0.00,North,0,0.0,0.0,90,0.00,,,0.00,WUHU21623XXSP,2013-07-14 10:05:00,
2013-07-14 06:10:00,72.0,68.9,0.00,North,0,0.0,0.0,90,0.00,,,0.00,WUHU21623XXSP,2013-07-14 10:10:00,
2013-07-14 06:15:00,72.0,68.9,0.00,North,0,0.0,0.0,90,0.00,,,0.00,WUHU21623XXSP,2013-07-14 10:15:00,
2013-07-14 06:20:00,72.0,68.9,0.00,North,0,0.0,0.0,90,0.00,,,0.00,WUHU21623XXSP,2013-07-14 10:20:00,
2013-07-14 06:25:00,72.0,68.9,0.00,North,0,0.0,0.0,90,0.00,,,0.00,WUHU21623XXSP,2013-07-14 10:25:00,
2013-07-14 06:30:00,72.0,68.9,0.00,North,0,0.0,0.0,90,0.00,,,0.00,WUHU21623XXSP,2013-07-14 10:30:00,
2013-07-14 06:35:00,72.0,68.9,0.00,North,0,0.0,0.0,90,0.00,,,0.00,WUHU21623XXSP,2013-07-14 10:35:00,
2013-07-14 06:40:00,72.0,68.9,0.00,North,0,0.0,0.0,90,0.00,,,0.00,WUHU21623XXSP,2013-07-14 10:40:00,
2013-07-14 06:45:00,72.0,68.9,0.00,North,0,0.0,0.0,90,0.00,,,0.00,WUHU21623XXSP,2013-07-14 10:45:00,
2013-07-14 06:50:00,72.0,68.9,0.00,North,0,0.0,0.0,90,0.00,,,0.00,WUHU21623XXSP,2013-07-14 10:50:00,
2013-07-14 06:55:00,72.0,68.9,0.00,North,0,0.0,0.0,90,0.00,,,0.00,WUHU21623XXSP,2013-07-14 10:55:00,
2013-07-14 07:00:00,72.1,69.1,0.00,North,0,0.0,0.0,90,0.00,,,0.00,WUHU21623XXSP,2013-07-14 11:00:00,
2013-07-14 07:05:00,72.1,69.1,0.00,North,0,0.0,0.0,90,0.00,,,0.00,WUHU21623XXSP,2013-07-14 11:05:00,
2013-07-14 07:10:00,72.1,69.1,0.00,North,0,0.0,0.0,90,0.00,,,0.00,WUHU21623XXSP,2013-07-14 11:10:00,
2013-07-14 07:15:00,72.1,69.1,0.00,North,0,0.0,0.0,90,0.00,,,0.00,WUHU21623XXSP,2013-07-14 11:15:00,
2013-07-14 07:20:00,72.3,69.1,0.00,North,0,0.0,0.0,90,0.00,,,0.00,WUHU21623XXSP,2013-07-14 11:20:00,
2013-07-14 07:25:00,72.3,69.3,0.00,North,0,0.0,0.0,90,0.00,,,0.00,WUHU21623XXSP,2013-07-14 11:25:00,
2013-07-14 07:30:00,72.3,69.3,0.00,North,0,0.0,0.0,90,0.00,,,0.00,WUHU21623XXSP,2013-07-14 11:30:00,
2013-07-14 07:35:00,72.3,69.3,0.00,North,0,0.0,0.0,90,0.00,,,0.00,WUHU21623XXSP,2013-07-14 11:35:00,
2013-07-14 07:40:00,72.3,69.3,0.00,North,0,0.0,0.0,90,0.00,,,0.00,WUHU21623XXSP,2013-07-14 11:40:00,
2013-07-14 07:45:00,72.5,69.4,0.00,North,0,0.0,0.0,90,0.00,,,0.00,WUHU21623XXSP,2013-07-14 11:45:00,
2013-07-14 07:50:00,72.5,69.4,0.00,North,0,0.0,0.0,90,0.00,,,0.00,WUHU21623XXSP,2013-07-14 11:50:00,
2013-07-14 07:55:00,72.5,69.4,0.00,North,0,0.0,0.0,90,0.00,,,0.00,WUHU21623XXSP,2013-07-14 11:55:00,
2013-07-14 08:00:00,72.5,69.4,0.00,North,0,0.0,0.0,90,0.00,,,0.00,WUHU21623XXSP,2013-07-14 12:00:00,
2013-07-14 08:05:00,72.7,69.6,0.00,North,0,0.0,0.0,90,0.00,,,0.00,WUHU21623XXSP,2013-07-14 12:05:00,
2013-07-14 08:10:00,72.7,69.6,0.00,North,0,0.0,0.0,90,0.00,,,0.00,WUHU21623XXSP,2013-07-14 12:10:00,
2013-07-14 08:15:00,72.9,69.8,0.00,North,0,0.0,0.0,90,0.00,,,0.00,WUHU21623XXSP,2013-07-14 12:15:00,
2013-07-14 08:20:00,73.0,69.8,0.00,North,0,0.0,0.0,90,0.00,,,0.00,WUHU21623XXSP,2013-07-14 12:20:00,
2013-07-14 08:25:00,73.0,70.0,0.00,North,0,0.0,0.0,90,0.00,,,0.00,WUHU21623XXSP,2013-07-14 12:25:00,
2013-07-14 08:30:00,73.0,70.0,0.00,North,0,0.0,0.0,90,0.00,,,0.00,WUHU21623XXSP,2013-07-14 12:30:00,
2013-07-14 08:35:00,73.2,70.2,0.00,North,0,0.0,0.0,90,0.00,,,0.00,WUHU21623XXSP,2013-07-14 12:35:00,
2013-07-14 08:40:00,73.2,70.2,0.00,North,0,0.0,0.0,90,0.00,,,0.00,WUHU21623XXSP,2013-07-14 12:40:00,
2013-07-14 08:45:00,73.2,70.2,0.00,North,0,0.0,0.0,90,0.00,,,0.00,WUHU21623XXSP,2013-07-14 12:45:00,
2013-07-14 08:50:00,73.2,70.2,0.00,North,0,0.0,0.0,90,0.00,,,0.00,WUHU21623XXSP,2013-07-14 12:50:00,
2013-07-14 08:55:00,73.2,70.2,0.00,North,0,0.0,0.0,90,0.00,,,0.00,WUHU21623XXSP,2013-07-14 12:55:00,
2013-07-14 09:00:00,73.4,70.3,0.00,North,0,0.0,0.0,90,0.00,,,0.00,WUHU21623XXSP,2013-07-14 13:00:00,
2013-07-14 09:05:00,73.6,70.5,0.00,North,0,0.0,0.0,90,0.00,,,0.00,WUHU21623XXSP,2013-07-14 13:05:00,
2013-07-14 09:10:00,73.8,70.7,0.00,North,0,0.0,0.0,90,0.00,,,0.00,WUHU21623XXSP,2013-07-14 13:10:00,
2013-07-14 09:15:00,73.8,70.7,0.00,North,0,0.0,0.0,90,0.00,,,0.00,WUHU21623XXSP,2013-07-14 13:15:00,
2013-07-14 09:20:00,73.9,70.7,0.00,North,0,0.0,0.0,90,0.00,,,0.00,WUHU21623XXSP,2013-07-14 13:20:00,
2013-07-14 09:25:00,73.9,70.9,0.00,North,0,0.0,0.0,90,0.00,,,0.00,WUHU21623XXSP,2013-07-14 13:25:00,
2013-07-14 09:30:00,73.9,70.9,0.00,North,0,0.0,0.0,90,0.00,,,0.00,WUHU21623XXSP,2013-07-14 13:30:00,
2013-07-14 09:35:00,74.1,71.1,0.00,North,0,0.0,0.0,90,0.00,,,0.00,WUHU21623XXSP,2013-07-14 13:35:00,
2013-07-14 09:40:00,74.3,71.2,0.00,North,0,0.0,0.0,90,0.00,,,0.00,WUHU21623XXSP,2013-07-14 13:40:00,
2013-07-14 09:45:00,74.5,71.4,0.00,North,0,0.0,0.0,90,0.00,,,0.00,WUHU21623XXSP,2013-07-14 13:45:00,
2013-07-14 09:50:00,75.0,72.0,0.00,North,0,0.0,0.0,90,0.00,,,0.00,WUHU21623XXSP,2013-07-14 13:50:00,
2013-07-14 09:55:00,75.0,72.0,0.00,North,0,0.0,0.0,90,0.00,,,0.00,WUHU21623XXSP,2013-07-14 13:55:00,
2013-07-14 10:01:00,75.4,72.3,0.00,North,0,0.0,0.0,90,0.00,,,0.00,WUHU21623XXSP,2013-07-14 14:01:00,
2013-07-14 10:06:00,75.7,72.7,0.00,North,0,0.0,0.0,90,0.00,,,0.00,WUHU21623XXSP,2013-07-14 14:06:00,
2013-07-14 10:11:00,75.9,72.9,0.00,North,0,0.0,0.0,90,0.00,,,0.00,WUHU21623XXSP,2013-07-14 14:11:00,
2013-07-14 10:16:00,76.1,73.0,0.00,North,0,0.0,0.0,90,0.00,,,0.00,WUHU21623XXSP,2013-07-14 14:16:00,
2013-07-14 10:21:00,76.6,73.6,0.00,North,0,0.0,0.0,90,0.00,,,0.00,WUHU21623XXSP,2013-07-14 14:21:00,
2013-07-14 10:26:00,77.0,73.9,0.00,North,0,0.0,0.0,90,0.00,,,0.00,WUHU21623XXSP,2013-07-14 14:26:00,
2013-07-14 10:31:00,77.2,74.1,0.00,North,0,0.0,0.0,90,0.00,,,0.00,WUHU21623XXSP,2013-07-14 14:31:00,
2013-07-14 10:36:00,77.4,74.3,0.00,North,0,0.0,0.0,90,0.00,,,0.00,WUHU21623XXSP,2013-07-14 14:36:00,
2013-07-14 10:41:00,77.5,74.5,0.00,North,0,0.0,0.0,90,0.00,,,0.00,WUHU21623XXSP,2013-07-14 14:41:00,
2013-07-14 10:46:00,77.5,74.5,0.00,North,0,0.0,0.0,90,0.00,,,0.00,WUHU21623XXSP,2013-07-14 14:46:00,
2013-07-14 10:51:00,77.9,74.5,0.00,North,0,0.0,0.0,89,0.00,,,0.00,WUHU21623XXSP,2013-07-14 14:51:00,
2013-07-14 10:56:00,78.1,74.7,0.00,North,0,0.0,0.0,89,0.00,,,0.00,WUHU21623XXSP,2013-07-14 14:56:00,
2013-07-14 11:01:00,78.1,74.7,0.00,North,0,0.0,0.0,89,0.00,,,0.00,WUHU21623XXSP,2013-07-14 15:01:00,
2013-07-14 11:06:00,78.4,75.0,0.00,North,0,0.0,0.0,89,0.00,,,0.00,WUHU21623XXSP,2013-07-14 15:06:00,
2013-07-14 11:11:00,78.6,75.0,0.00,North,0,0.0,0.0,89,0.00,,,0.00,WUHU21623XXSP,2013-07-14 15:11:00,
2013-07-14 11:16:00,78.6,75.2,0.00,North,0,0.0,0.0,89,0.00,,,0.00,WUHU21623XXSP,2013-07-14 15:16:00,
2013-07-14 11:21:00,78.6,75.2,0.00,North,0,0.0,0.0,89,0.00,,,0.00,WUHU21623XXSP,2013-07-14 15:21:00,
2013-07-14 11:26:00,78.4,74.8,0.00,North,0,0.0,0.0,88,0.00,,,0.00,WUHU21623XXSP,2013-07-14 15:26:00,
2013-07-14 11:31:00,78.6,74.7,0.00,North,0,0.0,0.0,88,0.00,,,0.00,WUHU21623XXSP,2013-07-14 15:31:00,
2013-07-14 11:36:00,78.4,74.8,0.00,North,0,0.0,0.0,88,0.00,,,0.00,WUHU21623XXSP,2013-07-14 15:36:00,
2013-07-14 11:41:00,78.4,74.7,0.00,North,0,0.0,0.0,88,0.00,,,0.00,WUHU21623XXSP,2013-07-14 15:41:00,
2013-07-14 11:46:00,78.6,74.8,0.00,North,0,0.0,0.0,88,0.00,,,0.00,WUHU21623XXSP,2013-07-14 15:46:00,
2013-07-14 11:51:00,78.6,74.8,0.00,North,0,0.0,0.0,87,0.00,,,0.00,WUHU21623XXSP,2013-07-14 15:51:00,
2013-07-14 11:56:00,78.6,74.5,0.00,North,0,0.0,0.0,87,0.00,,,0.00,WUHU21623XXSP,2013-07-14 15:56:00,
2013-07-14 12:01:00,78.6,74.1,0.00,North,0,0.0,0.0,86,0.00,,,0.00,WUHU21623XXSP,2013-07-14 16:01:00,
2013-07-14 12:06:00,79.5,74.4,0.00,North,0,0.0,0.0,85,0.00,,,0.00,WUHU21623XXSP,2013-07-14 16:06:00,
2013-07-14 12:11:00,79.5,74.3,0.00,North,0,0.0,0.0,84,0.00,,,0.00,WUHU21623XXSP,2013-07-14 16:11:00,
2013-07-14 12:16:00,79.5,74.3,0.00,North,0,0.0,0.0,84,0.00,,,0.00,WUHU21623XXSP,2013-07-14 16:16:00,
2013-07-14 12:21:00,79.5,74.3,0.00,North,0,0.0,0.0,84,0.00,,,0.00,WUHU21623XXSP,2013-07-14 16:21:00,
2013-07-14 12:26:00,79.7,74.3,0.00,North,0,0.0,0.0,84,0.00,,,0.00,WUHU21623XXSP,2013-07-14 16:26:00,
2013-07-14 12:31:00,79.7,74.3,0.00,North,0,0.0,0.0,84,0.00,,,0.00,WUHU21623XXSP,2013-07-14 16:31:00,
2013-07-14 12:36:00,79.5,74.3,0.00,North,0,0.0,0.0,84,0.00,,,0.00,WUHU21623XXSP,2013-07-14 16:36:00,
2013-07-14 12:41:00,79.5,74.3,0.00,North,0,0.0,0.0,84,0.00,,,0.00,WUHU21623XXSP,2013-07-14 16:41:00,
2013-07-14 12:46:00,80.2,74.9,0.00,North,0,0.0,0.0,84,0.00,,,0.00,WUHU21623XXSP,2013-07-14 16:46:00,
2013-07-14 12:51:00,80.2,74.9,0.00,North,0,0.0,0.0,84,0.00,,,0.00,WUHU21623XXSP,2013-07-14 16:51:00,
2013-07-14 12:56:00,79.9,74.8,0.00,North,0,0.0,0.0,84,0.00,,,0.00,WUHU21623XXSP,2013-07-14 16:56:00,
2013-07-14 13:01:00,80.2,74.6,0.00,North,0,0.0,0.0,83,0.00,,,0.00,WUHU21623XXSP,2013-07-14 17:01:00,
2013-07-14 13:06:00,80.4,74.8,0.00,North,0,0.0,0.0,83,0.00,,,0.00,WUHU21623XXSP,2013-07-14 17:06:00,
2013-07-14 13:11:00,80.4,74.8,0.00,North,0,0.0,0.0,82,0.00,,,0.00,WUHU21623XXSP,2013-07-14 17:11:00,
2013-07-14 13:16:00,80.4,74.4,0.00,North,0,0.0,0.0,82,0.00,,,0.00,WUHU21623XXSP,2013-07-14 17:16:00,
2013-07-14 13:21:00,80.2,74.4,0.00,North,0,0.0,0.0,82,0.00,,,0.00,WUHU21623XXSP,2013-07-14 17:21:00,
2013-07-14 13:26:00,80.2,74.3,0.00,North,0,0.0,0.0,82,0.00,,,0.00,WUHU21623XXSP,2013-07-14 17:26:00,
2013-07-14 13:31:00,80.4,74.4,0.00,North,0,0.0,0.0,82,0.00,,,0.00,WUHU21623XXSP,2013-07-14 17:31:00,
2013-07-14 13:36:00,80.4,74.4,0.00,North,0,0.0,0.0,82,0.00,,,0.00,WUHU21623XXSP,2013-07-14 17:36:00,
2013-07-14 13:41:00,80.4,74.4,0.00,North,0,0.0,0.0,82,0.00,,,0.00,WUHU21623XXSP,2013-07-14 17:41:00,
2013-07-14 13:46:00,80.8,74.8,0.00,North,0,0.0,0.0,81,0.00,,,0.00,WUHU21623XXSP,2013-07-14 17:46:00,
2013-07-14 13:51:00,80.8,74.8,0.00,North,0,0.0,0.0,82,0.00,,,0.00,WUHU21623XXSP,2013-07-14 17:51:00,
2013-07-14 13:56:00,80.8,74.6,0.00,North,0,0.0,0.0,82,0.00,,,0.00,WUHU21623XXSP,2013-07-14 17:56:00,
2013-07-14 14:01:00,80.8,74.8,0.00,North,0,0.0,0.0,82,0.00,,,0.00,WUHU21623XXSP,2013-07-14 18:01:00,
2013-07-14 14:06:00,81.0,74.8,0.00,North,0,0.0,0.0,82,0.00,,,0.00,WUHU21623XXSP,2013-07-14 18:06:00,
2013-07-14 14:11:00,81.1,75.0,0.00,North,0,0.0,0.0,82,0.00,,,0.00,WUHU21623XXSP,2013-07-14 18:11:00,
2013-07-14 14:16:00,81.1,75.2,0.00,North,0,0.0,0.0,81,0.00,,,0.00,WUHU21623XXSP,2013-07-14 18:16:00,
2013-07-14 14:21:00,81.3,74.5,0.00,North,0,0.0,0.0,80,0.00,,,0.00,WUHU21623XXSP,2013-07-14 18:21:00,
2013-07-14 14:26:00,81.5,74.7,0.00,North,0,0.0,0.0,80,0.00,,,0.00,WUHU21623XXSP,2013-07-14 18:26:00,
2013-07-14 14:31:00,81.5,75.2,0.00,North,0,0.0,0.0,81,0.00,,,0.00,WUHU21623XXSP,2013-07-14 18:31:00,
2013-07-14 14:36:00,81.7,75.2,0.00,North,0,0.0,0.0,80,0.00,,,0.00,WUHU21623XXSP,2013-07-14 18:36:00,
2013-07-14 14:41:00,81.7,75.0,0.00,North,0,0.0,0.0,80,0.00,,,0.00,WUHU21623XXSP,2013-07-14 18:41:00,
2013-07-14 14:46:00,81.5,75.0,0.00,North,0,0.0,0.0,80,0.00,,,0.00,WUHU21623XXSP,2013-07-14 18:46:00,
2013-07-14 14:51:00,81.5,74.8,0.00,North,0,0.0,0.0,80,0.00,,,0.00,WUHU21623XXSP,2013-07-14 18:51:00,
2013-07-14 14:56:00,81.5,74.8,0.00,North,0,0.0,0.0,79,0.00,,,0.00,WUHU21623XXSP,2013-07-14 18:56:00,
2013-07-14 15:01:00,81.7,74.2,0.00,North,0,0.0,0.0,78,0.00,,,0.00,WUHU21623XXSP,2013-07-14 19:01:00,
2013-07-14 15:06:00,81.9,73.8,0.00,North,0,0.0,0.0,77,0.00,,,0.00,WUHU21623XXSP,2013-07-14 19:06:00,
2013-07-14 15:11:00,81.9,73.8,0.00,North,0,0.0,0.0,78,0.00,,,0.00,WUHU21623XXSP,2013-07-14 19:11:00,
2013-07-14 15:16:00,81.9,74.4,0.00,North,0,0.0,0.0,78,0.00,,,0.00,WUHU21623XXSP,2013-07-14 19:16:00,
2013-07-14 15:21:00,82.0,74.6,0.00,North,0,0.0,0.0,77,0.00,,,0.00,WUHU21623XXSP,2013-07-14 19:21:00,
2013-07-14 15:26:00,82.0,74.1,0.00,North,0,0.0,0.0,78,0.00,,,0.00,WUHU21623XXSP,2013-07-14 19:26:00,
2013-07-14 15:31:00,81.9,74.6,0.00,North,0,0.0,0.0,77,0.00,,,0.00,WUHU21623XXSP,2013-07-14 19:31:00,
2013-07-14 15:36:00,81.7,74.0,0.00,North,0,0.0,0.0,77,0.00,,,0.00,WUHU21623XXSP,2013-07-14 19:36:00,
2013-07-14 15:41:00,81.7,73.8,0.00,North,0,0.0,0.0,77,0.00,,,0.00,WUHU21623XXSP,2013-07-14 19:41:00,
2013-07-14 15:46:00,81.7,73.8,0.00,North,0,0.0,0.0,76,0.00,,,0.00,WUHU21623XXSP,2013-07-14 19:46:00,
2013-07-14 15:51:00,81.7,73.0,0.00,North,0,0.0,0.0,76,0.00,,,0.00,WUHU21623XXSP,2013-07-14 19:51:00,
2013-07-14 15:56:00,81.7,73.4,0.00,North,0,0.0,0.0,76,0.00,,,0.00,WUHU21623XXSP,2013-07-14 19:56:00,
2013-07-14 16:01:00,81.7,73.4,0.00,North,0,0.0,0.0,76,0.00,,,0.00,WUHU21623XXSP,2013-07-14 20:01:00,
2013-07-14 16:06:00,81.7,73.4,0.00,North,0,0.0,0.0,76,0.00,,,0.00,WUHU21623XXSP,2013-07-14 20:06:00,
2013-07-14 16:11:00,81.7,73.4,0.00,North,0,0.0,0.0,76,0.00,,,0.00,WUHU21623XXSP,2013-07-14 20:11:00,
2013-07-14 16:16:00,81.7,73.0,0.00,North,0,0.0,0.0,76,0.00,,,0.00,WUHU21623XXSP,2013-07-14 20:16:00,
2013-07-14 16:21:00,81.7,73.4,0.00,North,0,0.0,0.0,76,0.00,,,0.00,WUHU21623XXSP,2013-07-14 20:21:00,
2013-07-14 16:26:00,81.7,73.4,0.00,North,0,0.0,0.0,76,0.00,,,0.00,WUHU21623XXSP,2013-07-14 20:26:00,
2013-07-14 16:31:00,81.5,73.6,0.00,North,0,0.0,0.0,77,0.00,,,0.00,WUHU21623XXSP,2013-07-14 20:31:00,
2013-07-14 16:36:00,81.5,73.6,0.00,North,0,0.0,0.0,77,0.00,,,0.00,WUHU21623XXSP,2013-07-14 20:36:00,
2013-07-14 16:41:00,81.5,73.6,0.00,North,0,0.0,0.0,77,0.00,,,0.00,WUHU21623XXSP,2013-07-14 20:41:00,
2013-07-14 16:46:00,81.3,73.4,0.00,North,0,0.0,0.0,78,0.00,,,0.00,WUHU21623XXSP,2013-07-14 20:46:00,
2013-07-14 16:51:00,81.3,73.8,0.00,North,0,0.0,0.0,78,0.00,,,0.00,WUHU21623XXSP,2013-07-14 20:51:00,
2013-07-14 16:56:00,81.3,73.8,0.00,North,0,0.0,0.0,78,0.00,,,0.00,WUHU21623XXSP,2013-07-14 20:56:00,
2013-07-14 17:01:00,81.3,73.8,0.00,North,0,0.0,0.0,78,0.00,,,0.00,WUHU21623XXSP,2013-07-14 21:01:00,
2013-07-14 17:06:00,81.5,74.0,0.00,North,0,0.0,0.0,78,0.00,,,0.00,WUHU21623XXSP,2013-07-14 21:06:00,
2013-07-14 17:11:00,81.5,74.0,0.00,North,0,0.0,0.0,78,0.00,,,0.00,WUHU21623XXSP,2013-07-14 21:11:00,
2013-07-14 17:16:00,81.5,74.0,0.00,North,0,0.0,0.0,78,0.00,,,0.00,WUHU21623XXSP,2013-07-14 21:16:00,
2013-07-14 17:21:00,81.7,74.2,0.00,North,0,0.0,0.0,78,0.00,,,0.00,WUHU21623XXSP,2013-07-14 21:21:00,
2013-07-14 17:26:00,81.7,74.2,0.00,North,0,0.0,0.0,78,0.00,,,0.00,WUHU21623XXSP,2013-07-14 21:26:00,
2013-07-14 17:31:00,81.5,74.0,0.00,North,0,0.0,0.0,78,0.00,,,0.00,WUHU21623XXSP,2013-07-14 21:31:00,
2013-07-14 17:36:00,81.3,73.8,0.00,North,0,0.0,0.0,79,0.00,,,0.00,WUHU21623XXSP,2013-07-14 21:36:00,
2013-07-14 17:41:00,81.3,74.2,0.00,North,0,0.0,0.0,79,0.00,,,0.00,WUHU21623XXSP,2013-07-14 21:41:00,
2013-07-14 17:46:00,81.1,74.2,0.00,North,0,0.0,0.0,79,0.00,,,0.00,WUHU21623XXSP,2013-07-14 21:46:00,
2013-07-14 17:51:00,81.3,74.2,0.00,North,0,0.0,0.0,79,0.00,,,0.00,WUHU21623XXSP,2013-07-14 21:51:00,
2013-07-14 17:56:00,81.3,74.2,0.00,North,0,0.0,0.0,79,0.00,,,0.00,WUHU21623XXSP,2013-07-14 21:56:00,
2013-07-14 18:01:00,81.3,74.2,0.00,North,0,0.0,0.0,79,0.00,,,0.00,WUHU21623XXSP,2013-07-14 22:01:00,
2013-07-14 18:06:00,81.3,73.8,0.00,North,0,0.0,0.0,78,0.00,,,0.00,WUHU21623XXSP,2013-07-14 22:06:00,
2013-07-14 18:11:00,81.3,73.8,0.00,North,0,0.0,0.0,78,0.00,,,0.00,WUHU21623XXSP,2013-07-14 22:11:00,
2013-07-14 18:16:00,81.1,73.7,0.00,North,0,0.0,0.0,78,0.00,,,0.00,WUHU21623XXSP,2013-07-14 22:16:00,
2013-07-14 18:21:00,81.1,74.1,0.00,North,0,0.0,0.0,79,0.00,,,0.00,WUHU21623XXSP,2013-07-14 22:21:00,
2013-07-14 18:26:00,81.1,74.1,0.00,North,0,0.0,0.0,79,0.00,,,0.00,WUHU21623XXSP,2013-07-14 22:26:00,
2013-07-14 18:31:00,81.1,74.1,0.00,North,0,0.0,0.0,79,0.00,,,0.00,WUHU21623XXSP,2013-07-14 22:31:00,
2013-07-14 18:36:00,81.0,74.1,0.00,North,0,0.0,0.0,79,0.00,,,0.00,WUHU21623XXSP,2013-07-14 22:36:00,
2013-07-14 18:41:00,80.8,73.9,0.00,North,0,0.0,0.0,79,0.00,,,0.00,WUHU21623XXSP,2013-07-14 22:41:00,
2013-07-14 18:46:00,80.8,74.1,0.00,North,0,0.0,0.0,80,0.00,,,0.00,WUHU21623XXSP,2013-07-14 22:46:00,
2013-07-14 18:51:00,80.8,74.1,0.00,North,0,0.0,0.0,80,0.00,,,0.00,WUHU21623XXSP,2013-07-14 22:51:00,
2013-07-14 18:56:00,80.6,73.9,0.00,North,0,0.0,0.0,80,0.00,,,0.00,WUHU21623XXSP,2013-07-14 22:56:00,
2013-07-14 19:01:00,80.4,73.9,0.00,North,0,0.0,0.0,80,0.00,,,0.00,WUHU21623XXSP,2013-07-14 23:01:00,
2013-07-14 19:06:00,80.4,73.8,0.00,North,0,0.0,0.0,80,0.00,,,0.00,WUHU21623XXSP,2013-07-14 23:06:00,
2013-07-14 19:11:00,80.4,73.8,0.00,North,0,0.0,0.0,81,0.00,,,0.00,WUHU21623XXSP,2013-07-14 23:11:00,
2013-07-14 19:16:00,80.4,74.1,0.00,North,0,0.0,0.0,81,0.00,,,0.00,WUHU21623XXSP,2013-07-14 23:16:00,
2013-07-14 19:21:00,80.2,73.9,0.00,North,0,0.0,0.0,81,0.00,,,0.00,WUHU21623XXSP,2013-07-14 23:21:00,
2013-07-14 19:26:00,80.2,73.9,0.00,North,0,0.0,0.0,81,0.00,,,0.00,WUHU21623XXSP,2013-07-14 23:26:00,
2013-07-14 19:31:00,80.2,73.9,0.00,North,0,0.0,0.0,82,0.00,,,0.00,WUHU21623XXSP,2013-07-14 23:31:00,
2013-07-14 19:36:00,80.2,74.1,0.00,North,0,0.0,0.0,82,0.00,,,0.00,WUHU21623XXSP,2013-07-14 23:36:00,
2013-07-14 19:41:00,80.1,74.1,0.00,North,0,0.0,0.0,82,0.00,,,0.00,WUHU21623XXSP,2013-07-14 23:41:00,
2013-07-14 19:46:00,79.9,73.9,0.00,North,0,0.0,0.0,82,0.00,,,0.00,WUHU21623XXSP,2013-07-14 23:46:00,
2013-07-14 19:51:00,79.9,73.9,0.00,North,0,0.0,0.0,82,0.00,,,0.00,WUHU21623XXSP,2013-07-14 23:51:00,
2013-07-14 19:56:00,79.7,73.9,0.00,North,0,0.0,0.0,82,0.00,,,0.00,WUHU21623XXSP,2013-07-14 23:56:00,
2013-07-14 20:01:00,79.7,73.7,0.00,North,0,0.0,0.0,82,0.00,,,0.00,WUHU21623XXSP,2013-07-15 00:01:00,
2013-07-14 20:06:00,79.5,73.6,0.00,North,0,0.0,0.0,83,0.00,,,0.00,WUHU21623XXSP,2013-07-15 00:06:00,
2013-07-14 20:11:00,79.5,73.9,0.00,North,0,0.0,0.0,83,0.00,,,0.00,WUHU21623XXSP,2013-07-15 00:11:00,
2013-07-14 20:16:00,79.3,73.7,0.00,North,0,0.0,0.0,83,0.00,,,0.00,WUHU21623XXSP,2013-07-15 00:16:00,
2013-07-14 20:21:00,79.3,73.7,0.00,North,0,0.0,0.0,83,0.00,,,0.00,WUHU21623XXSP,2013-07-15 00:21:00,
2013-07-14 20:26:00,79.2,73.6,0.00,North,0,0.0,0.0,83,0.00,,,0.00,WUHU21623XXSP,2013-07-15 00:26:00,
2013-07-14 20:31:00,79.0,73.4,0.00,North,0,0.0,0.0,83,0.00,,,0.00,WUHU21623XXSP,2013-07-15 00:31:00,
2013-07-14 20:36:00,79.0,73.7,0.00,North,0,0.0,0.0,84,0.00,,,0.00,WUHU21623XXSP,2013-07-15 00:36:00,
2013-07-14 20:41:00,78.8,73.7,0.00,North,0,0.0,0.0,84,0.00,,,0.00,WUHU21623XXSP,2013-07-15 00:41:00,
2013-07-14 20:46:00,78.6,73.6,0.00,North,0,0.0,0.0,84,0.00,,,0.00,WUHU21623XXSP,2013-07-15 00:46:00,
2013-07-14 20:52:00,78.6,73.4,0.00,North,0,0.0,0.0,84,0.00,,,0.00,WUHU21623XXSP,2013-07-15 00:52:00,
2013-07-14 20:57:00,78.6,73.4,0.00,North,0,0.0,0.0,84,0.00,,,0.00,WUHU21623XXSP,2013-07-15 00:57:00,
2013-07-14 21:02:00,78.4,73.2,0.00,North,0,0.0,0.0,84,0.00,,,0.00,WUHU21623XXSP,2013-07-15 01:02:00,
2013-07-14 21:07:00,78.4,73.2,0.00,North,0,0.0,0.0,84,0.00,,,0.00,WUHU21623XXSP,2013-07-15 01:07:00,
2013-07-14 21:12:00,78.1,72.9,0.00,North,0,0.0,0.0,84,0.00,,,0.00,WUHU21623XXSP,2013-07-15 01:12:00,
2013-07-14 21:17:00,78.1,73.2,0.00,North,0,0.0,0.0,85,0.00,,,0.00,WUHU21623XXSP,2013-07-15 01:17:00,
2013-07-14 21:22:00,77.9,73.0,0.00,North,0,0.0,0.0,85,0.00,,,0.00,WUHU21623XXSP,2013-07-15 01:22:00,
2013-07-14 21:27:00,77.7,72.9,0.00,North,0,0.0,0.0,85,0.00,,,0.00,WUHU21623XXSP,2013-07-15 01:27:00,
2013-07-14 21:32:00,77.7,72.9,0.00,North,0,0.0,0.0,85,0.00,,,0.00,WUHU21623XXSP,2013-07-15 01:32:00,
2013-07-14 21:37:00,77.5,72.7,0.00,North,0,0.0,0.0,85,0.00,,,0.00,WUHU21623XXSP,2013-07-15 01:37:00,
2013-07-14 21:42:00,77.4,72.7,0.00,North,0,0.0,0.0,85,0.00,,,0.00,WUHU21623XXSP,2013-07-15 01:42:00,
2013-07-14 21:52:00,77.2,72.5,0.00,North,0,0.0,0.0,85,0.00,,,0.00,WUHU21623XXSP,2013-07-15 01:52:00,
2013-07-14 21:57:00,77.2,72.3,0.00,North,0,0.0,0.0,85,0.00,,,0.00,WUHU21623XXSP,2013-07-15 01:57:00,
2013-07-14 22:02:00,77.2,72.7,0.00,North,0,0.0,0.0,86,0.00,,,0.00,WUHU21623XXSP,2013-07-15 02:02:00,
2013-07-14 22:07:00,76.8,72.3,0.00,North,0,0.0,0.0,86,0.00,,,0.00,WUHU21623XXSP,2013-07-15 02:07:00,
2013-07-14 22:12:00,76.8,72.3,0.00,North,0,0.0,0.0,86,0.00,,,0.00,WUHU21623XXSP,2013-07-15 02:12:00,
2013-07-14 22:17:00,76.8,72.3,0.00,North,0,0.0,0.0,86,0.00,,,0.00,WUHU21623XXSP,2013-07-15 02:17:00,
2013-07-14 22:22:00,76.6,72.3,0.00,North,0,0.0,0.0,86,0.00,,,0.00,WUHU21623XXSP,2013-07-15 02:22:00,
2013-07-14 22:27:00,76.6,72.1,0.00,North,0,0.0,0.0,86,0.00,,,0.00,WUHU21623XXSP,2013-07-15 02:27:00,
2013-07-14 22:32:00,76.6,72.1,0.00,North,0,0.0,0.0,86,0.00,,,0.00,WUHU21623XXSP,2013-07-15 02:32:00,
2013-07-14 22:37:00,76.3,72.0,0.00,North,0,0.0,0.0,86,0.00,,,0.00,WUHU21623XXSP,2013-07-15 02:37:00,
2013-07-14 22:42:00,76.3,71.8,0.00,North,0,0.0,0.0,86,0.00,,,0.00,WUHU21623XXSP,2013-07-15 02:42:00,
2013-07-14 22:47:00,76.3,71.8,0.00,North,0,0.0,0.0,86,0.00,,,0.00,WUHU21623XXSP,2013-07-15 02:47:00,
2013-07-14 22:52:00,76.1,71.6,0.00,North,0,0.0,0.0,86,0.00,,,0.00,WUHU21623XXSP,2013-07-15 02:52:00,
2013-07-14 22:57:00,75.9,71.6,0.00,North,0,0.0,0.0,86,0.00,,,0.00,WUHU21623XXSP,2013-07-15 02:57:00,
2013-07-14 23:02:00,75.9,71.5,0.00,North,0,0.0,0.0,86,0.00,,,0.00,WUHU21623XXSP,2013-07-15 03:02:00,
2013-07-14 23:07:00,75.9,71.5,0.00,North,0,0.0,0.0,86,0.00,,,0.00,WUHU21623XXSP,2013-07-15 03:07:00,
2013-07-14 23:12:00,75.9,71.5,0.00,North,0,0.0,0.0,86,0.00,,,0.00,WUHU21623XXSP,2013-07-15 03:12:00,
2013-07-14 23:17:00,75.7,71.3,0.00,North,0,0.0,0.0,86,0.00,,,0.00,WUHU21623XXSP,2013-07-15 03:17:00,
2013-07-14 23:22:00,75.7,71.3,0.00,North,0,0.0,0.0,86,0.00,,,0.00,WUHU21623XXSP,2013-07-15 03:22:00,
2013-07-14 23:27:00,75.6,71.3,0.00,North,0,0.0,0.0,86,0.00,,,0.00,WUHU21623XXSP,2013-07-15 03:27:00,
2013-07-14 23:32:00,75.6,71.5,0.00,North,0,0.0,0.0,86,0.00,,,0.00,WUHU21623XXSP,2013-07-15 03:32:00,
2013-07-14 23:37:00,75.4,71.5,0.00,North,0,0.0,0.0,87,0.00,,,0.00,WUHU21623XXSP,2013-07-15 03:37:00,
2013-07-14 23:42:00,75.4,71.3,0.00,North,0,0.0,0.0,87,0.00,,,0.00,WUHU21623XXSP,2013-07-15 03:42:00,
2013-07-14 23:47:00,75.4,71.1,0.00,North,0,0.0,0.0,87,0.00,,,0.00,WUHU21623XXSP,2013-07-15 03:47:00,
2013-07-14 23:52:00,75.0,71.1,0.00,North,0,0.0,0.0,87,0.00,,,0.00,WUHU21623XXSP,2013-07-15 03:52:00,
2013-07-14 23:57:00,75.0,70.9,0.00,North,0,0.0,0.0,87,0.00,,,0.00,WUHU21623XXSP,2013-07-15 03:57:00,